Wind_Speed
10 11 11 10 11 14 11 4 5 5 7 8 8 8 9 9 9 9 10 8 8 7 5 3 1 2 3 4 5 6 7 8 9 10 10 10 10 10 10 11 12 13 13 13 12 12 10 9 8
9 8 8 8 10 12 6 1 2 3 4 5 5 5 6 7 8 9 8 7 7 6 5 2 1 2 3 4 4 6 7 8 9 9 9 8 8 9 11 11 12 12 12 12 12 12 12 10 9
8 8 7 4 12 10 4 3 3 3 2 2 2 2 2 3 5 6 7 7 7 6 5 3 2 2 3 3 4 5 7 8 9 8 8 7 7 8 10 11 11 11 11 11 11 11 12 11 10
8 7 7 8 8 6 4 4 4 4 2 2 2 1 1 2 3 5 6 7 7 6 5 4 4 3 3 3 4 5 7 8 9 8 8 8 8 9 10 11 11 11 10 10 10 11 12 12 11
9 9 7 6 4 1 2 2 3 4 2 3 4 4 5 6 6 7 9 9 9 8 7 6 7 6 6 5 5 6 7 8 9 9 9 10 10 11 12 13 13 12 10 9 8 9 11 12 12
11 11 7 0 1 5 7 3 1 4 4 4 5 6 6 8 10 11 12 13 12 11 11 10 10 10 10 9 8 8 9 9 10 10 11 12 13 15 16 16 15 13 12 9 8 8 9 10 11
13 11 8 1 1 7 11 7 5 5 5 5 6 8 5 7 9 11 13 14 15 13 14 12 12 12 12 11 11 10 10 11 11 12 13 14 15 17 18 18 17 15 13 12 10 9 8 9 10
11 10 7 1 5 9 14 11 9 7 10 8 9 10 5 7 8 10 12 13 14 13 14 14 14 14 14 13 13 12 12 12 13 13 14 16 17 17 18 18 17 16 15 14 12 11 9 8 9
12 11 6 2 6 8 11 9 9 10 12 11 11 11 9 8 8 9 11 12 13 13 13 14 14 16 16 15 14 14 13 14 14 15 16 17 17 17 18 18 18 17 17 16 15 14 12 11 9
13 13 8 8 9 8 10 8 9 10 11 14 14 12 12 10 10 9 10 11 12 13 14 14 15 16 17 17 16 15 15 15 16 17 18 18 18 18 19 19 18 18 17 17 18 17 16 14 12
17 17 16 16 16 17 14 11 12 9 10 16 16 15 13 14 13 13 13 13 13 14 14 15 16 18 18 18 18 18 18 18 18 19 20 20 20 21 20 21 21 20 20 19 20 20 20 19 17
21 21 22 20 19 19 19 18 16 14 15 21 20 21 20 19 19 18 17 17 17 18 18 18 19 20 21 22 22 22 22 22 23 23 24 24 24 24 24 24 24 23 23 23 23 22 22 23 22
26 25 25 24 24 23 23 23 22 21 22 27 26 26 25 25 24 23 23 23 23 23 23 23 23 24 25 25 26 26 27 27 27 27 28 29 29 28 28 28 28 27 27 26 26 26 26 26 25
30 30 28 27 27 28 29 28 26 25 27 31 30 30 30 30 29 28 28 27 28 28 28 28 28 28 28 29 30 30 31 31 31 32 32 33 34 34 33 32 32 32 31 31 30 30 30 29 29
32 31 29 28 29 31 33 32 28 25 27 32 33 33 33 34 33 33 33 32 32 33 32 32 32 32 32 33 34 34 35 36 36 36 36 36 37 38 38 37 37 37 36 35 35 35 35 34 33
32 32 31 25 27 31 32 31 26 24 27 35 37 35 35 36 36 37 38 37 37 38 37 36 37 37 37 38 38 38 39 40 40 40 40 41 41 42 42 41 41 41 41 41 41 40 41 41 40
27 27 25 17 25 32 31 28 23 24 30 36 39 39 40 41 42 43 43 43 42 42 42 42 42 43 42 43 43 42 41 42 43 43 44 45 44 44 44 44 44 44 44 44 45 45 46 46 45
13 13 14 15 21 30 33 29 21 25 35 39 41 42 42 43 45 46 45 45 46 46 45 45 45 46 46 45 44 43 43 43 45 46 46 47 47 46 46 46 47 47 47 47 47 48 49 49 48
21 22 22 20 24 33 35 32 25 25 34 39 41 40 39 40 43 43 41 41 44 45 45 44 45 46 46 44 43 42 43 44 45 46 46 47 48 49 49 49 48 48 48 48 48 49 50 51 51
14 17 19 17 22 28 29 27 25 25 30 35 37 37 37 39 40 39 39 39 39 40 40 40 40 41 42 42 42 42 43 44 46 47 47 48 50 51 52 49 48 49 48 48 48 50 51 51 51
12 13 17 21 25 26 27 27 24 24 28 34 36 37 37 36 37 38 39 39 38 39 39 40 40 41 42 43 43 44 45 46 47 49 50 50 52 53 52 50 50 50 50 50 50 50 51 50 48
16 18 24 26 26 26 24 27 22 20 26 33 37 36 34 34 35 36 38 39 41 41 42 43 44 45 46 47 48 49 49 50 50 51 52 53 54 54 53 53 53 53 53 52 51 50 50 48 46
22 23 25 24 23 22 18 21 18 17 24 29 32 32 35 36 36 37 37 38 39 40 41 43 44 45 47 48 49 50 51 51 51 52 53 54 55 55 56 55 55 54 53 52 51 49 48 46 43
18 17 16 15 15 16 16 18 15 19 25 29 34 38 40 40 38 37 36 36 36 37 37 38 39 40 41 43 45 46 47 49 50 51 52 53 54 54 55 55 54 54 52 51 50 48 45 43 40
14 14 11 8 9 15 16 18 18 22 26 30 33 37 39 39 38 36 34 33 34 34 35 35 35 36 37 39 41 43 45 47 49 51 53 54 55 55 55 55 55 54 52 50 48 46 43 41 38
13 12 11 13 12 13 15 18 20 26 30 31 31 33 36 38 39 39 37 36 36 36 37 37 37 37 38 40 42 44 46 49 51 53 55 56 57 57 56 56 55 54 52 49 47 44 40 37 36
12 10 12 15 15 14 12 13 22 29 32 34 35 37 39 41 42 42 42 41 41 41 41 41 41 41 42 43 44 46 48 50 52 54 55 55 56 57 56 55 53 51 49 47 45 41 37 35 34
14 14 16 18 19 19 15 15 23 29 32 38 41 42 43 43 43 43 44 44 44 44 44 44 44 44 44 45 46 47 48 50 51 52 53 54 55 55 54 53 50 46 44 43 41 38 36 34 33
16 17 20 22 23 23 22 18 20 28 33 38 40 41 41 41 42 44 44 44 45 44 45 45 45 45 45 45 46 46 47 47 47 48 48 49 50 50 49 45 42 41 40 39 38 37 35 33 32
16 18 20 21 21 22 24 21 20 27 31 36 40 40 40 40 42 43 43 43 43 43 43 43 43 43 43 43 43 43 42 42 42 42 42 41 40 39 39 37 36 35 35 34 33 32 31 32 31
Wind_Direction
113 105 105 102 85 78 70 69 111 127 125 126 123 128 136 133 132 138 142 149 149 151 152 158 206 316 332 340 339 336 337 341 344 350 358 6 14 18 20 19 19 18 17 15 11 7 359 353 346
126 124 127 112 62 81 81 330 62 73 101 114 120 133 137 137 148 153 160 165 169 173 174 188 252 303 322 337 345 344 341 342 343 346 353 3 13 15 13 12 11 12 13 13 11 8 3 357 349
142 145 134 103 31 52 51 332 6 22 57 71 97 124 129 155 168 180 189 193 196 203 210 221 246 279 308 328 341 346 344 340 339 338 341 348 356 0 359 358 358 1 5 8 9 7 5 1 354
154 150 135 80 41 27 348 342 359 352 359 345 324 317 296 268 255 243 232 227 224 227 236 245 256 270 285 306 325 334 337 335 332 329 325 326 330 334 339 341 343 346 351 358 4 7 6 3 357
167 157 123 62 69 9 276 320 17 330 328 321 302 292 293 286 278 270 264 258 251 248 253 261 266 269 272 281 295 310 319 321 320 315 309 308 310 315 321 325 326 328 331 338 349 357 359 0 359
177 167 103 316 148 272 268 255 17 312 339 315 301 282 284 282 279 273 270 267 262 259 262 266 270 271 272 275 282 292 300 306 305 302 297 296 299 305 312 315 315 314 312 314 323 338 349 355 357
188 177 141 307 291 279 271 263 261 283 292 299 298 284 279 278 279 276 272 271 268 265 266 267 270 271 270 271 276 282 288 292 294 292 291 292 296 302 306 308 308 305 301 298 302 313 330 343 350
191 188 147 318 280 267 273 267 265 272 280 290 296 293 288 277 275 278 277 276 276 273 271 271 270 270 270 270 271 275 279 282 284 284 285 289 295 300 304 305 305 300 295 289 288 293 304 318 332
194 189 159 246 241 254 273 269 275 272 281 285 287 289 287 278 271 275 279 280 282 281 278 277 275 274 273 272 271 271 274 277 279 281 284 289 292 297 302 303 303 300 294 287 282 282 287 294 307
203 196 176 246 228 233 268 271 264 286 300 296 287 279 283 282 276 274 278 282 286 287 287 286 283 282 280 277 274 272 273 276 279 282 285 287 289 293 296 299 301 301 296 290 283 280 279 281 287
216 212 209 231 240 244 256 264 270 277 281 278 279 280 282 281 279 279 280 282 284 287 290 293 291 288 287 285 281 278 278 280 282 284 287 288 289 290 292 295 298 298 297 293 289 284 279 278 277
229 229 234 240 246 249 255 260 265 267 265 266 269 279 283 282 281 281 282 282 283 285 286 289 290 289 289 289 287 285 284 284 284 286 288 289 290 290 289 291 292 294 295 295 294 291 285 279 276
238 240 245 250 254 258 260 263 266 268 268 271 271 274 277 278 278 279 280 281 282 282 283 284 285 285 287 288 289 288 288 288 287 288 290 291 292 293 293 293 293 294 296 297 296 294 289 283 279
246 247 252 259 265 268 268 267 269 274 277 275 274 274 274 275 276 276 276 277 278 278 279 281 281 282 283 285 286 288 288 289 289 289 289 291 292 293 294 294 295 295 296 297 296 295 292 289 284
252 258 263 268 275 274 271 270 271 274 271 271 274 276 276 276 277 278 277 277 277 278 279 280 281 282 283 284 284 286 287 287 287 288 288 288 289 291 292 293 294 295 296 296 295 294 292 290 286
257 262 267 275 277 272 272 273 273 274 269 270 273 275 275 277 280 281 281 280 280 280 280 281 282 283 284 285 285 286 286 286 287 286 287 287 287 288 289 290 291 293 294 294 293 292 291 288 285
264 272 276 272 270 277 275 273 274 268 263 265 273 278 280 282 283 282 283 283 282 282 283 283 284 284 283 284 284 285 285 284 285 286 287 287 288 288 288 290 290 291 292 292 292 292 292 289 286
246 251 257 246 254 269 271 273 267 266 268 269 273 276 280 281 281 282 282 282 281 281 281 281 282 282 281 281 282 282 282 283 283 284 285 286 287 287 287 287 287 289 290 290 291 293 293 292 287
243 230 224 233 247 258 268 278 274 255 265 272 277 280 280 279 279 282 280 279 279 279 279 279 278 278 278 279 279 279 279 279 280 280 281 283 285 285 285 284 285 287 289 289 290 293 295 294 289
252 249 250 258 266 272 280 285 284 279 276 278 281 284 284 283 284 283 283 285 281 281 281 280 278 278 277 277 277 277 277 277 279 280 280 281 282 282 283 282 283 285 287 289 291 294 294 294 291
266 271 263 256 261 277 288 291 296 297 291 288 291 291 289 287 287 287 286 285 283 283 282 282 281 280 279 279 278 278 278 278 279 280 280 280 281 281 281 281 283 286 287 289 291 293 293 293 289
265 262 267 276 284 287 289 288 288 283 281 284 286 288 289 294 295 292 288 285 284 282 282 281 281 281 281 280 280 280 280 280 280 279 280 281 282 283 284 285 286 287 288 288 289 291 292 290 286
275 275 282 290 294 297 301 294 295 281 271 275 277 282 290 297 297 294 290 287 285 283 281 280 279 279 280 280 280 280 280 281 280 280 280 280 281 281 282 283 284 284 285 286 287 288 289 288 283
290 290 294 306 313 302 284 270 274 267 268 276 283 288 292 295 297 296 293 289 286 284 283 282 281 280 280 280 281 281 282 282 282 282 281 281 281 280 281 281 281 282 282 283 285 285 285 285 281
298 305 309 304 302 301 297 304 307 293 291 294 292 291 294 297 299 298 296 292 289 286 284 283 283 282 282 282 282 283 283 283 283 283 283 282 281 280 279 278 278 279 279 280 282 282 281 280 276
302 304 306 296 286 280 293 308 298 288 293 294 294 293 295 296 296 295 294 291 289 287 285 283 283 283 283 283 283 283 284 284 284 284 284 283 282 281 279 277 276 276 276 276 277 278 277 275 270
310 305 298 301 306 306 307 299 293 290 293 295 297 299 301 299 297 296 294 291 288 286 284 283 282 281 282 283 284 285 285 286 286 286 285 284 283 282 280 277 275 273 271 271 271 271 269 268 265
313 312 312 311 308 303 300 291 287 292 297 297 299 302 304 304 303 301 298 296 291 286 283 281 280 280 281 282 284 286 287 287 288 287 286 286 284 281 278 275 272 268 266 264 263 263 261 262 261
300 299 299 298 298 299 299 295 285 286 289 291 296 300 303 306 307 305 303 300 297 292 286 282 279 279 280 282 285 287 289 290 290 290 288 287 285 282 277 270 265 264 260 256 255 257 257 259 258
285 297 303 305 307 304 305 312 301 294 295 297 300 305 309 310 309 308 307 305 302 297 291 286 282 280 281 283 286 289 292 293 294 294 292 290 287 281 274 265 262 259 254 250 249 251 253 255 254
Height
5923 5924 5925 5926 5925 5924 5925 5927 5926 5924 5924 5924 5924 5923 5923 5923 5925 5927 5925 5925 5926 5926 5926 5927 5928 5928 5928 5927 5927 5927 5927 5926 5925 5924 5923 5922 5920 5919 5917 5916 5915 5913 5911 5910 5908 5907 5906 5905 5904
5925 5926 5927 5927 5925 5924 5927 5928 5928 5927 5927 5926 5926 5925 5925 5925 5925 5926 5925 5926 5927 5927 5927 5928 5928 5929 5928 5928 5928 5928 5927 5927 5926 5925 5924 5923 5921 5920 5919 5917 5916 5914 5913 5911 5909 5907 5906 5905 5904
5927 5928 5928 5927 5926 5925 5929 5929 5929 5929 5929 5928 5928 5928 5928 5928 5928 5927 5927 5927 5927 5928 5928 5928 5928 5929 5929 5928 5928 5928 5927 5927 5926 5925 5924 5923 5922 5921 5919 5918 5916 5915 5913 5912 5910 5908 5907 5905 5904
5927 5929 5930 5930 5931 5930 5931 5930 5930 5930 5930 5930 5929 5930 5929 5929 5930 5929 5929 5928 5928 5928 5928 5928 5928 5928 5928 5928 5928 5928 5927 5927 5926 5925 5924 5924 5922 5921 5920 5918 5917 5915 5914 5912 5911 5909 5907 5906 5904
5927 5929 5929 5931 5932 5932 5933 5932 5931 5930 5930 5930 5930 5930 5930 5930 5930 5930 5929 5929 5929 5929 5928 5928 5928 5928 5928 5927 5927 5927 5926 5926 5926 5925 5924 5923 5922 5921 5920 5918 5916 5915 5914 5912 5911 5910 5908 5906 5905
5927 5928 5930 5932 5932 5933 5933 5932 5932 5931 5930 5929 5929 5929 5930 5930 5930 5929 5929 5929 5929 5929 5928 5928 5927 5927 5926 5926 5926 5925 5925 5925 5924 5924 5923 5922 5921 5920 5919 5917 5916 5914 5913 5912 5911 5910 5908 5907 5905
5927 5928 5928 5932 5933 5933 5933 5932 5932 5931 5930 5929 5929 5928 5929 5929 5929 5928 5928 5928 5928 5928 5927 5927 5926 5926 5925 5924 5924 5924 5923 5923 5922 5922 5921 5920 5919 5918 5917 5915 5914 5913 5912 5911 5910 5909 5908 5907 5905
5926 5929 5929 5933 5934 5933 5931 5931 5931 5930 5929 5929 5929 5928 5928 5927 5927 5927 5927 5926 5926 5927 5926 5926 5925 5924 5923 5923 5922 5922 5921 5921 5920 5920 5919 5918 5917 5916 5915 5913 5912 5911 5910 5909 5909 5908 5907 5906 5905
5924 5928 5929 5932 5932 5931 5929 5930 5930 5928 5928 5928 5927 5927 5926 5926 5925 5925 5925 5925 5925 5925 5925 5924 5924 5923 5922 5921 5921 5920 5919 5919 5918 5917 5916 5916 5915 5914 5913 5912 5910 5909 5909 5908 5907 5907 5906 5905 5904
5923 5926 5928 5930 5929 5929 5929 5929 5929 5928 5928 5926 5925 5924 5924 5924 5924 5924 5923 5923 5923 5923 5923 5923 5923 5922 5921 5920 5919 5918 5917 5916 5915 5915 5914 5913 5912 5912 5911 5909 5908 5907 5907 5906 5905 5905 5904 5903 5902
5921 5923 5923 5925 5926 5926 5927 5928 5927 5928 5928 5924 5922 5918 5921 5922 5922 5922 5922 5922 5921 5921 5921 5921 5921 5920 5919 5918 5917 5916 5915 5914 5913 5912 5911 5910 5910 5909 5908 5907 5906 5905 5904 5903 5903 5902 5902 5901 5900
5917 5919 5920 5921 5922 5924 5924 5925 5925 5926 5925 5921 5921 5919 5919 5919 5919 5919 5920 5919 5919 5919 5919 5919 5918 5917 5916 5915 5914 5913 5912 5912 5911 5909 5908 5907 5906 5906 5905 5904 5904 5903 5902 5901 5900 5899 5899 5898 5897
5913 5915 5916 5918 5919 5920 5921 5922 5922 5923 5922 5918 5919 5918 5917 5917 5916 5916 5916 5916 5916 5915 5915 5915 5914 5913 5912 5911 5910 5910 5909 5908 5907 5906 5905 5903 5902 5901 5900 5899 5899 5898 5897 5897 5896 5895 5895 5894 5893
5908 5909 5912 5914 5915 5916 5916 5917 5919 5919 5917 5914 5914 5914 5913 5912 5912 5912 5912 5912 5911 5911 5910 5910 5910 5909 5908 5907 5905 5904 5903 5902 5902 5901 5900 5899 5897 5896 5896 5895 5894 5893 5893 5892 5892 5891 5890 5889 5888
5904 5907 5909 5910 5910 5909 5909 5911 5914 5914 5912 5909 5909 5909 5907 5906 5906 5906 5905 5906 5905 5905 5905 5904 5904 5903 5902 5901 5900 5898 5897 5896 5895 5894 5894 5893 5892 5891 5890 5889 5888 5888 5887 5887 5886 5885 5884 5883 5883
5901 5903 5904 5907 5905 5903 5904 5905 5907 5907 5907 5903 5902 5902 5901 5900 5900 5900 5899 5899 5899 5898 5898 5898 5897 5896 5896 5894 5893 5892 5890 5889 5888 5887 5886 5886 5885 5884 5883 5882 5882 5881 5880 5880 5879 5878 5877 5875 5874
5897 5899 5901 5905 5902 5898 5898 5899 5902 5901 5900 5897 5895 5895 5894 5893 5893 5892 5892 5891 5891 5891 5890 5890 5889 5888 5887 5885 5884 5883 5882 5881 5879 5878 5878 5877 5877 5877 5876 5874 5874 5873 5873 5872 5870 5869 5868 5867 5865
5894 5898 5901 5903 5901 5893 5890 5892 5896 5896 5892 5890 5889 5888 5887 5886 5884 5883 5883 5882 5881 5882 5882 5881 5880 5878 5877 5876 5875 5874 5873 5872 5871 5870 5869 5868 5868 5868 5868 5866 5865 5864 5864 5863 5861 5860 5858 5857 5854
5886 5889 5891 5893 5892 5886 5885 5886 5888 5889 5885 5883 5881 5880 5879 5877 5875 5875 5873 5871 5872 5872 5872 5872 5871 5869 5867 5866 5865 5865 5864 5863 5862 5861 5860 5860 5859 5858 5857 5857 5856 5855 5854 5853 5852 5850 5848 5846 5843
5882 5884 5886 5887 5885 5882 5880 5880 5880 5880 5878 5875 5874 5873 5871 5869 5867 5867 5865 5863 5863 5862 5862 5862 5861 5860 5858 5857 5856 5855 5854 5854 5853 5852 5851 5850 5849 5847 5846 5845 5845 5844 5843 5842 5842 5839 5837 5835 5831
5880 5881 5881 5880 5877 5876 5876 5875 5875 5873 5871 5868 5866 5864 5863 5862 5860 5859 5858 5857 5854 5854 5853 5852 5851 5850 5848 5847 5846 5845 5844 5844 5843 5842 5840 5839 5838 5836 5834 5833 5833 5832 5832 5831 5831 5829 5826 5823 5820
5875 5875 5873 5873 5873 5872 5872 5870 5871 5870 5866 5862 5858 5855 5853 5853 5852 5851 5849 5848 5846 5845 5844 5843 5841 5840 5838 5837 5835 5834 5833 5833 5833 5831 5829 5828 5826 5824 5822 5823 5822 5822 5821 5820 5819 5817 5815 5812 5809
5869 5869 5868 5868 5867 5867 5867 5865 5867 5865 5859 5854 5850 5848 5847 5846 5845 5843 5841 5839 5837 5836 5835 5833 5832 5831 5828 5826 5825 5823 5822 5821 5820 5819 5817 5816 5815 5814 5813 5812 5811 5810 5810 5809 5808 5806 5804 5801 5798
5864 5864 5864 5864 5863 5863 5862 5860 5860 5856 5853 5850 5849 5846 5844 5841 5839 5836 5833 5831 5829 5827 5825 5824 5822 5821 5819 5817 5814 5812 5811 5809 5808 5807 5805 5804 5803 5802 5801 5800 5799 5798 5798 5798 5796 5795 5793 5790 5788
5862 5862 5862 5862 5863 5860 5857 5856 5856 5850 5850 5848 5845 5842 5838 5834 5831 5829 5826 5824 5822 5819 5817 5816 5814 5812 5810 5808 5806 5804 5801 5799 5797 5795 5793 5791 5790 5788 5788 5787 5786 5786 5786 5786 5785 5784 5783 5781 5779
5859 5859 5860 5859 5859 5858 5857 5857 5855 5848 5846 5843 5840 5837 5833 5829 5825 5822 5819 5817 5814 5812 5810 5808 5806 5804 5802 5799 5797 5794 5791 5788 5786 5783 5780 5778 5775 5774 5773 5772 5772 5773 5773 5773 5773 5773 5773 5771 5771
5856 5856 5856 5855 5854 5854 5856 5856 5849 5841 5839 5836 5833 5830 5826 5822 5818 5814 5811 5808 5806 5803 5801 5798 5796 5794 5792 5790 5787 5784 5781 5777 5774 5770 5767 5764 5761 5758 5756 5756 5757 5758 5759 5761 5761 5762 5763 5762 5762
5854 5854 5853 5851 5850 5849 5850 5850 5844 5838 5833 5829 5826 5822 5818 5814 5810 5805 5801 5798 5795 5793 5790 5788 5786 5784 5782 5780 5777 5773 5770 5766 5762 5758 5753 5750 5746 5743 5741 5740 5741 5743 5745 5748 5750 5751 5753 5754 5754
5853 5851 5849 5847 5846 5844 5842 5845 5841 5835 5830 5825 5821 5817 5812 5808 5802 5797 5792 5788 5784 5781 5779 5776 5774 5773 5771 5769 5766 5762 5759 5754 5750 5745 5740 5735 5731 5727 5725 5726 5727 5730 5733 5735 5739 5741 5744 5745 5746
5849 5847 5845 5843 5841 5839 5836 5838 5834 5829 5824 5819 5814 5809 5805 5800 5795 5789 5784 5779 5775 5771 5767 5765 5763 5761 5760 5758 5755 5751 5747 5743 5738 5733 5728 5723 5717 5714 5712 5714 5716 5719 5722 5725 5729 5732 5735 5737 5738